| time (UTC) | temp C | wind direction | speed KPH | gust KPH | rain 1hr cm | rain 24hr cm | rain mn cm | humidity % | barometer mb |
| 20260505205404 | 1 | 351 | 0.0 | 3.2 | 0.00 | 0.00 | 0.00 | 63 | 1012.5 |
| 20260505204903 | 1 | 352 | 0.0 | 1.6 | 0.00 | 0.00 | 0.00 | 63 | 1012.4 |
| 20260505204403 | 1 | 352 | 1.6 | 1.6 | 0.00 | 0.00 | 0.00 | 64 | 1012.5 |
| 20260505203904 | 1 | 352 | 1.6 | 3.2 | 0.00 | 0.00 | 0.00 | 62 | 1012.4 |
| 20260505202904 | 1 | 338 | 1.6 | 3.2 | 0.00 | 0.00 | 0.00 | 58 | 1012.4 |
| 20260505202403 | 2 | 338 | 1.6 | 3.2 | 0.00 | 0.00 | 0.00 | 58 | 1012.4 |
| 20260505201904 | 2 | 308 | 0.0 | 0.0 | 0.00 | 0.00 | 0.00 | 57 | 1012.4 |
| 20260505201404 | 2 | 308 | 0.0 | 0.0 | 0.00 | 0.00 | 0.00 | 55 | 1012.4 |
| 20260505200904 | 2 | 308 | 0.0 | 1.6 | 0.00 | 0.00 | 0.00 | 54 | 1012.3 |
| 20260505200404 | 2 | 308 | 1.6 | 3.2 | 0.00 | 0.00 | 0.00 | 53 | 1012.3 |
| 20260505195904 | 3 | 308 | 0.0 | 0.0 | 0.00 | 0.00 | 0.00 | 51 | 1012.2 |
| 20260505195403 | 3 | 308 | 0.0 | 0.0 | 0.00 | 0.00 | 0.00 | 48 | 1012.2 |
| 20260505194404 | 4 | 308 | 0.0 | 0.0 | 0.00 | 0.00 | 0.00 | 46 | 1012.2 |
| 20260505193903 | 5 | 308 | 0.0 | 0.0 | 0.00 | 0.00 | 0.00 | 46 | 1012.2 |
| 20260505193404 | 5 | 308 | 0.0 | 0.0 | 0.00 | 0.00 | 0.00 | 45 | 1012.1 |
| 20260505192902 | 5 | 308 | 0.0 | 1.6 | 0.00 | 0.00 | 0.00 | 44 | 1012.1 |
| 20260505192402 | 5 | 308 | 0.0 | 0.0 | 0.00 | 0.00 | 0.00 | 43 | 1012.0 |
| 20260505191403 | 6 | 308 | 0.0 | 0.0 | 0.00 | 0.00 | 0.00 | 42 | 1011.9 |
| 20260505190903 | 6 | 308 | 0.0 | 0.0 | 0.00 | 0.00 | 0.00 | 40 | 1011.8 |
| 20260505190402 | 6 | 308 | 0.0 | 0.0 | 0.00 | 0.00 | 0.00 | 40 | 1011.7 |
| 20260505185903 | 6 | 308 | 0.0 | 0.0 | 0.00 | 0.00 | 0.00 | 40 | 1011.7 |
| 20260505185403 | 7 | 308 | 0.0 | 1.6 | 0.00 | 0.00 | 0.00 | 40 | 1011.7 |
| 20260505183903 | 7 | 296 | 1.6 | 4.8 | 0.00 | 0.00 | 0.00 | 36 | 1011.5 |
| 20260505183403 | 7 | 298 | 3.2 | 4.8 | 0.00 | 0.00 | 0.00 | 36 | 1011.5 |
| 20260505182903 | 8 | 293 | 1.6 | 4.8 | 0.00 | 0.00 | 0.00 | 37 | 1011.5 |
| 20260505182402 | 8 | 280 | 3.2 | 14.5 | 0.00 | 0.00 | 0.00 | 35 | 1011.4 |
| 20260505181903 | 8 | 320 | 1.6 | 4.8 | 0.00 | 0.00 | 0.00 | 36 | 1011.3 |
| 20260505181404 | 8 | 289 | 3.2 | 9.7 | 0.00 | 0.00 | 0.00 | 34 | 1011.3 |
| 20260505180903 | 8 | 294 | 3.2 | 8.0 | 0.00 | 0.00 | 0.00 | 34 | 1011.2 |
| 20260505180404 | 9 | 298 | 3.2 | 12.9 | 0.00 | 0.00 | 0.00 | 32 | 1011.2 |
| 20260505175903 | 9 | 290 | 3.2 | 8.0 | 0.00 | 0.00 | 0.00 | 31 | 1011.1 |
| 20260505175403 | 10 | 288 | 3.2 | 11.3 | 0.00 | 0.00 | 0.00 | 31 | 1011.1 |
| 20260505174403 | 10 | 310 | 4.8 | 8.0 | 0.00 | 0.00 | 0.00 | 32 | 1011.0 |
| 20260505173902 | 10 | 330 | 3.2 | 14.5 | 0.00 | 0.00 | 0.00 | 30 | 1010.9 |
| 20260505173403 | 10 | 316 | 4.8 | 12.9 | 0.00 | 0.00 | 0.00 | 32 | 1011.0 |
| 20260505171402 | 10 | 295 | 4.8 | 19.3 | 0.00 | 0.00 | 0.00 | 32 | 1011.0 |
| 20260505170902 | 10 | 272 | 12.9 | 22.5 | 0.00 | 0.00 | 0.00 | 29 | 1011.0 |
| 20260505170402 | 11 | 281 | 8.0 | 16.1 | 0.00 | 0.00 | 0.00 | 31 | 1011.0 |
| 20260505165902 | 11 | 316 | 8.0 | 14.5 | 0.00 | 0.00 | 0.00 | 30 | 1010.9 |
| 20260505165402 | 11 | 285 | 9.7 | 19.3 | 0.00 | 0.00 | 0.00 | 30 | 1010.9 |
| 20260505164903 | 11 | 273 | 8.0 | 25.7 | 0.00 | 0.00 | 0.00 | 30 | 1011.0 |
| 20260505164403 | 11 | 278 | 9.7 | 22.5 | 0.00 | 0.00 | 0.00 | 30 | 1010.9 |
| 20260505163903 | 11 | 309 | 3.2 | 20.9 | 0.00 | 0.00 | 0.00 | 30 | 1010.9 |
| 20260505163403 | 11 | 274 | 9.7 | 19.3 | 0.00 | 0.00 | 0.00 | 28 | 1011.0 |
| 20260505162903 | 11 | 272 | 11.3 | 22.5 | 0.00 | 0.00 | 0.00 | 29 | 1010.9 |
| 20260505162403 | 11 | 288 | 9.7 | 19.3 | 0.00 | 0.00 | 0.00 | 29 | 1010.9 |
| 20260505161902 | 11 | 279 | 4.8 | 14.5 | 0.00 | 0.00 | 0.00 | 31 | 1010.9 |
| 20260505161403 | 11 | 276 | 11.3 | 19.3 | 0.00 | 0.00 | 0.00 | 30 | 1011.0 |
| 20260505160904 | 11 | 309 | 6.4 | 16.1 | 0.00 | 0.00 | 0.00 | 29 | 1011.0 |
| 20260505152403 | 11 | 290 | 9.7 | 19.3 | 0.00 | 0.00 | 0.00 | 28 | 1010.9 |
| 20260505151903 | 12 | 288 | 8.0 | 16.1 | 0.00 | 0.00 | 0.00 | 30 | 1010.9 |
| 20260505150904 | 11 | 295 | 8.0 | 20.9 | 0.00 | 0.00 | 0.00 | 30 | 1010.9 |
| 20260505140403 | 12 | 270 | 8.0 | 20.9 | 0.00 | 0.00 | 0.00 | 34 | 1010.7 |
| 20260505124903 | 12 | 270 | 19.3 | 32.2 | 0.00 | 0.00 | 0.00 | 30 | 1010.9 |
| 20260505124403 | 11 | 275 | 9.7 | 25.7 | 0.00 | 0.00 | 0.00 | 33 | 1011.0 |
| 20260505123903 | 12 | 268 | 19.3 | 29.0 | 0.00 | 0.00 | 0.00 | 32 | 1011.1 |
| 20260505123403 | 11 | 251 | 20.9 | 32.2 | 0.00 | 0.00 | 0.00 | 30 | 1011.0 |
| 20260505122403 | 11 | 266 | 19.3 | 27.4 | 0.00 | 0.00 | 0.00 | 30 | 1011.2 |
| 20260505121903 | 11 | 260 | 19.3 | 32.2 | 0.00 | 0.00 | 0.00 | 32 | 1011.2 |
| 20260505121403 | 11 | 278 | 14.5 | 29.0 | 0.00 | 0.00 | 0.00 | 32 | 1011.3 |
| 20260505120903 | 11 | 266 | 19.3 | 33.8 | 0.00 | 0.00 | 0.00 | 33 | 1011.2 |
| 20260505120403 | 11 | 261 | 16.1 | 25.7 | 0.00 | 0.00 | 0.00 | 32 | 1011.2 |
| 20260505115903 | 11 | 256 | 17.7 | 29.0 | 0.00 | 0.00 | 0.00 | 33 | 1011.1 |
| 20260505115402 | 11 | 275 | 17.7 | 27.4 | 0.00 | 0.00 | 0.00 | 34 | 1011.1 |
| 20260505114904 | 11 | 228 | 16.1 | 22.5 | 0.00 | 0.00 | 0.00 | 33 | 1011.1 |
| 20260505114403 | 11 | 256 | 19.3 | 32.2 | 0.00 | 0.00 | 0.00 | 32 | 1011.1 |
| 20260505113903 | 11 | 275 | 20.9 | 32.2 | 0.00 | 0.00 | 0.00 | 34 | 1011.1 |
| 20260505113403 | 11 | 292 | 9.7 | 20.9 | 0.00 | 0.00 | 0.00 | 35 | 1011.1 |
| 20260505112903 | 11 | 293 | 11.3 | 19.3 | 0.00 | 0.00 | 0.00 | 37 | 1011.1 |
| 20260505111903 | 10 | 268 | 11.3 | 22.5 | 0.00 | 0.00 | 0.00 | 37 | 1011.2 |
| 20260505111403 | 11 | 275 | 11.3 | 24.1 | 0.00 | 0.00 | 0.00 | 36 | 1011.2 |
| 20260505110903 | 10 | 282 | 11.3 | 25.7 | 0.00 | 0.00 | 0.00 | 38 | 1011.1 |
| 20260505110403 | 10 | 271 | 8.0 | 20.9 | 0.00 | 0.00 | 0.00 | 37 | 1011.2 |
| 20260505101403 | 9 | 248 | 9.7 | 19.3 | 0.00 | 0.00 | 0.00 | 42 | 1011.3 |
| 20260505100903 | 9 | 257 | 16.1 | 22.5 | 0.00 | 0.00 | 0.00 | 41 | 1011.3 |
| 20260505100403 | 10 | 269 | 14.5 | 24.1 | 0.00 | 0.00 | 0.00 | 41 | 1011.3 |
| 20260505095403 | 9 | 299 | 8.0 | 19.3 | 0.00 | 0.00 | 0.00 | 41 | 1011.2 |
| 20260505094903 | 9 | 282 | 8.0 | 22.5 | 0.00 | 0.00 | 0.00 | 44 | 1011.3 |
| 20260505094403 | 8 | 266 | 14.5 | 24.1 | 0.00 | 0.00 | 0.00 | 40 | 1011.2 |
| 20260505093903 | 8 | 277 | 12.9 | 25.7 | 0.00 | 0.00 | 0.00 | 43 | 1011.0 |
| 20260505092903 | 8 | 264 | 6.4 | 20.9 | 0.00 | 0.00 | 0.00 | 43 | 1011.0 |
| 20260505092403 | 8 | 271 | 16.1 | 24.1 | 0.00 | 0.00 | 0.00 | 42 | 1010.9 |
| 20260505091903 | 8 | 273 | 11.3 | 22.5 | 0.00 | 0.00 | 0.00 | 45 | 1011.0 |
| 20260505091403 | 8 | 254 | 11.3 | 16.1 | 0.00 | 0.00 | 0.00 | 47 | 1010.9 |
| 20260505090903 | 8 | 260 | 14.5 | 22.5 | 0.00 | 0.00 | 0.00 | 46 | 1010.9 |
| 20260505090403 | 8 | 282 | 8.0 | 14.5 | 0.00 | 0.00 | 0.00 | 44 | 1010.9 |
| 20260505085903 | 8 | 305 | 8.0 | 19.3 | 0.00 | 0.00 | 0.00 | 48 | 1010.8 |
| 20260505085403 | 8 | 278 | 6.4 | 14.5 | 0.00 | 0.00 | 0.00 | 47 | 1010.7 |
| 20260505084904 | 8 | 284 | 11.3 | 19.3 | 0.00 | 0.00 | 0.00 | 47 | 1010.7 |
| 20260505084403 | 8 | 256 | 6.4 | 19.3 | 0.00 | 0.00 | 0.00 | 50 | 1010.7 |
| 20260505083904 | 7 | 277 | 6.4 | 19.3 | 0.00 | 0.00 | 0.00 | 48 | 1010.7 |
| 20260505082904 | 7 | 282 | 14.5 | 22.5 | 0.00 | 0.00 | 0.00 | 48 | 1010.6 |
| 20260505082404 | 7 | 273 | 14.5 | 22.5 | 0.00 | 0.00 | 0.00 | 50 | 1010.7 |
| 20260505081903 | 7 | 266 | 9.7 | 16.1 | 0.00 | 0.00 | 0.00 | 48 | 1010.7 |
| 20260505080904 | 7 | 265 | 9.7 | 19.3 | 0.00 | 0.00 | 0.00 | 52 | 1010.7 |
| 20260505080403 | 7 | 272 | 6.4 | 12.9 | 0.00 | 0.00 | 0.00 | 53 | 1010.7 |
| 20260505075404 | 7 | 285 | 8.0 | 14.5 | 0.00 | 0.00 | 0.00 | 54 | 1010.6 |
| 20260505074903 | 7 | 315 | 6.4 | 14.5 | 0.00 | 0.00 | 0.00 | 54 | 1010.6 |
| 20260505074403 | 7 | 291 | 4.8 | 14.5 | 0.00 | 0.00 | 0.00 | 55 | 1010.5 |
| 20260505073903 | 6 | 295 | 8.0 | 16.1 | 0.00 | 0.00 | 0.00 | 54 | 1010.5 |
| 20260505073403 | 6 | 271 | 8.0 | 19.3 | 0.00 | 0.00 | 0.00 | 54 | 1010.5 |
| 20260505072904 | 7 | 256 | 9.7 | 16.1 | 0.00 | 0.00 | 0.00 | 53 | 1010.4 |
| 20260505072403 | 7 | 289 | 6.4 | 14.5 | 0.00 | 0.00 | 0.00 | 55 | 1010.3 |
| 20260505071903 | 6 | 292 | 3.2 | 19.3 | 0.00 | 0.00 | 0.00 | 58 | 1010.3 |
| 20260505071403 | 6 | 268 | 8.0 | 19.3 | 0.00 | 0.00 | 0.00 | 56 | 1010.2 |
| 20260505070904 | 6 | 305 | 4.8 | 14.5 | 0.00 | 0.00 | 0.00 | 60 | 1010.2 |
| 20260505070403 | 6 | 274 | 11.3 | 20.9 | 0.00 | 0.00 | 0.00 | 56 | 1010.2 |
| 20260505065903 | 6 | 277 | 12.9 | 19.3 | 0.00 | 0.00 | 0.00 | 57 | 1010.1 |
| 20260505065403 | 6 | 272 | 12.9 | 20.9 | 0.00 | 0.00 | 0.00 | 57 | 1010.1 |
| 20260505064904 | 6 | 259 | 9.7 | 19.3 | 0.00 | 0.00 | 0.00 | 57 | 1010.1 |
| 20260505064403 | 6 | 289 | 4.8 | 19.3 | 0.00 | 0.00 | 0.00 | 60 | 1010.0 |
| 20260505063903 | 6 | 296 | 9.7 | 19.3 | 0.00 | 0.00 | 0.00 | 60 | 1010.0 |
| 20260505063403 | 6 | 277 | 9.7 | 19.3 | 0.00 | 0.00 | 0.00 | 60 | 1010.1 |
| 20260505062904 | 6 | 273 | 8.0 | 20.9 | 0.00 | 0.00 | 0.00 | 61 | 1010.0 |
| 20260505062403 | 6 | 276 | 6.4 | 14.5 | 0.00 | 0.00 | 0.00 | 61 | 1010.1 |
| 20260505061404 | 6 | 274 | 9.7 | 19.3 | 0.00 | 0.00 | 0.00 | 60 | 1010.0 |
| 20260505060904 | 6 | 300 | 9.7 | 24.1 | 0.00 | 0.00 | 0.00 | 60 | 1010.0 |
| 20260505060404 | 6 | 304 | 4.8 | 14.5 | 0.00 | 0.00 | 0.00 | 62 | 1010.0 |
| 20260505055903 | 6 | 283 | 4.8 | 14.5 | 0.00 | 0.00 | 0.00 | 63 | 1009.9 |
| 20260505055403 | 6 | 308 | 1.6 | 12.9 | 0.00 | 0.00 | 0.00 | 64 | 1009.8 |
| 20260505054904 | 6 | 300 | 4.8 | 11.3 | 0.00 | 0.00 | 0.00 | 63 | 1009.9 |
| 20260505054403 | 6 | 308 | 3.2 | 12.9 | 0.00 | 0.00 | 0.00 | 64 | 1009.8 |
| 20260505052903 | 5 | 288 | 6.4 | 12.9 | 0.00 | 0.00 | 0.00 | 64 | 1009.7 |
| 20260505052403 | 5 | 285 | 6.4 | 14.5 | 0.00 | 0.00 | 0.00 | 65 | 1009.6 |
| 20260505051904 | 5 | 293 | 4.8 | 14.5 | 0.00 | 0.00 | 0.00 | 66 | 1009.7 |
| 20260505051404 | 5 | 272 | 6.4 | 14.5 | 0.00 | 0.00 | 0.00 | 66 | 1009.6 |
| 20260505050903 | 5 | 283 | 4.8 | 16.1 | 0.00 | 0.00 | 0.00 | 68 | 1009.6 |
| 20260505050404 | 5 | 287 | 4.8 | 12.9 | 0.00 | 0.00 | 0.00 | 70 | 1009.6 |
| 20260505041404 | 3 | 272 | 4.8 | 12.9 | 0.00 | 0.00 | 0.00 | 76 | 1009.1 |
| 20260505040903 | 3 | 269 | 6.4 | 11.3 | 0.00 | 0.00 | 0.00 | 77 | 1009.0 |
| 20260505040404 | 3 | 269 | 6.4 | 11.3 | 0.00 | 0.00 | 0.00 | 78 | 1009.0 |
| 20260505035903 | 2 | 272 | 4.8 | 11.3 | 0.00 | 0.00 | 0.00 | 79 | 1009.0 |
| 20260505035404 | 2 | 278 | 1.6 | 4.8 | 0.00 | 0.00 | 0.00 | 79 | 1008.9 |
| 20260505034404 | 2 | 315 | 1.6 | 4.8 | 0.00 | 0.03 | 0.00 | 80 | 1008.8 |
| 20260505033903 | 2 | 307 | 1.6 | 8.0 | 0.00 | 0.03 | 0.00 | 81 | 1008.7 |
| 20260505032904 | 2 | 306 | 1.6 | 4.8 | 0.00 | 0.03 | 0.00 | 83 | 1008.6 |
| 20260505032404 | 2 | 303 | 1.6 | 4.8 | 0.00 | 0.03 | 0.00 | 84 | 1008.6 |
| 20260505031904 | 2 | 298 | 0.0 | 4.8 | 0.00 | 0.03 | 0.00 | 85 | 1008.5 |
| 20260505031403 | 2 | 270 | 0.0 | 4.8 | 0.00 | 0.03 | 0.00 | 86 | 1008.5 |
| 20260505030903 | 2 | 271 | 1.6 | 4.8 | 0.00 | 0.03 | 0.00 | 86 | 1008.5 |
| 20260505030404 | 2 | 301 | 0.0 | 4.8 | 0.00 | 0.03 | 0.00 | 86 | 1008.5 |
| 20260505025903 | 2 | 287 | 0.0 | 4.8 | 0.00 | 0.03 | 0.00 | 87 | 1008.4 |
| 20260505025405 | 3 | 287 | 1.6 | 4.8 | 0.00 | 0.03 | 0.00 | 87 | 1008.4 |
| 20260505024903 | 3 | 285 | 0.0 | 3.2 | 0.00 | 0.05 | 0.00 | 88 | 1008.4 |
| 20260505024404 | 3 | 277 | 1.6 | 4.8 | 0.00 | 0.05 | 0.00 | 88 | 1008.4 |
| 20260505023903 | 3 | 276 | 3.2 | 4.8 | 0.00 | 0.05 | 0.00 | 88 | 1008.3 |
| 20260505023403 | 3 | 273 | 4.8 | 11.3 | 0.00 | 0.05 | 0.00 | 88 | 1008.3 |
| 20260505022904 | 4 | 271 | 8.0 | 11.3 | 0.00 | 0.05 | 0.00 | 88 | 1008.3 |
| 20260505022403 | 5 | 262 | 6.4 | 12.9 | 0.00 | 0.05 | 0.00 | 89 | 1008.3 |
| 20260505021904 | 5 | 266 | 8.0 | 12.9 | 0.00 | 0.05 | 0.00 | 89 | 1008.3 |
| 20260505021403 | 5 | 252 | 11.3 | 16.1 | 0.00 | 0.08 | 0.00 | 90 | 1008.2 |
| 20260505020904 | 5 | 258 | 11.3 | 16.1 | 0.00 | 0.08 | 0.00 | 90 | 1008.2 |
| 20260505020403 | 5 | 248 | 14.5 | 19.3 | 0.00 | 0.08 | 0.00 | 90 | 1008.2 |
| 20260505015904 | 5 | 250 | 14.5 | 19.3 | 0.00 | 0.08 | 0.00 | 90 | 1008.1 |
| 20260505015404 | 5 | 249 | 12.9 | 19.3 | 0.00 | 0.08 | 0.00 | 90 | 1008.1 |
| 20260505014903 | 5 | 245 | 12.9 | 19.3 | 0.00 | 0.10 | 0.00 | 91 | 1008.0 |
| 20260505014404 | 5 | 242 | 11.3 | 16.1 | 0.00 | 0.10 | 0.00 | 90 | 1008.0 |
| 20260505013403 | 5 | 237 | 12.9 | 19.3 | 0.00 | 0.15 | 0.00 | 90 | 1007.9 |
| 20260505012903 | 5 | 229 | 14.5 | 19.3 | 0.00 | 0.15 | 0.00 | 91 | 1007.9 |
| 20260505012404 | 5 | 229 | 14.5 | 19.3 | 0.00 | 0.18 | 0.00 | 90 | 1007.9 |
| 20260505011903 | 5 | 227 | 14.5 | 19.3 | 0.00 | 0.18 | 0.00 | 90 | 1007.9 |
| 20260505011404 | 5 | 231 | 14.5 | 19.3 | 0.00 | 0.18 | 0.00 | 90 | 1007.9 |
| 20260505010903 | 5 | 230 | 14.5 | 22.5 | 0.00 | 0.18 | 0.00 | 90 | 1007.9 |
| 20260505010403 | 5 | 232 | 16.1 | 20.9 | 0.00 | 0.18 | 0.00 | 90 | 1007.9 |
| 20260505005903 | 6 | 230 | 14.5 | 20.9 | 0.00 | 0.18 | 0.00 | 90 | 1007.8 |
| 20260505004404 | 6 | 233 | 16.1 | 24.1 | 0.00 | 0.18 | 0.00 | 90 | 1007.7 |
| 20260505003904 | 6 | 232 | 16.1 | 20.9 | 0.00 | 0.18 | 0.00 | 90 | 1007.8 |
| 20260505003404 | 6 | 231 | 17.7 | 24.1 | 0.00 | 0.18 | 0.00 | 90 | 1007.8 |
| 20260505002903 | 6 | 231 | 17.7 | 22.5 | 0.00 | 0.18 | 0.00 | 90 | 1007.8 |
| 20260505002403 | 6 | 232 | 16.1 | 24.1 | 0.00 | 0.18 | 0.00 | 90 | 1007.7 |
| 20260505001904 | 6 | 232 | 16.1 | 27.4 | 0.00 | 0.18 | 0.00 | 90 | 1007.7 |
| 20260505001404 | 6 | 229 | 16.1 | 22.5 | 0.00 | 0.18 | 0.00 | 90 | 1007.6 |
| 20260505000405 | 6 | 232 | 19.3 | 24.1 | 0.00 | 0.18 | 0.00 | 90 | 1007.6 |
| 20260504235904 | 6 | 232 | 19.3 | 24.1 | 0.00 | 0.18 | 0.00 | 90 | 1007.5 |
| 20260504235404 | 6 | 227 | 20.9 | 25.7 | 0.00 | 0.18 | 0.00 | 90 | 1007.4 |
| 20260504234904 | 6 | 231 | 19.3 | 27.4 | 0.00 | 0.18 | 0.00 | 90 | 1007.5 |
| 20260504234404 | 6 | 232 | 19.3 | 25.7 | 0.00 | 0.18 | 0.00 | 89 | 1007.7 |
| 20260504233904 | 6 | 234 | 17.7 | 24.1 | 0.00 | 0.18 | 0.00 | 89 | 1007.7 |
| 20260504233404 | 6 | 236 | 20.9 | 24.1 | 0.00 | 0.18 | 0.00 | 89 | 1007.6 |
| 20260504232904 | 6 | 234 | 19.3 | 25.7 | 0.00 | 0.18 | 0.00 | 89 | 1007.5 |
| 20260504232405 | 6 | 233 | 19.3 | 25.7 | 0.00 | 0.18 | 0.00 | 90 | 1007.5 |
| 20260504231904 | 6 | 237 | 19.3 | 24.1 | 0.00 | 0.18 | 0.00 | 89 | 1007.5 |
| 20260504231403 | 6 | 232 | 17.7 | 22.5 | 0.00 | 0.18 | 0.00 | 89 | 1007.5 |
| 20260504225904 | 6 | 226 | 20.9 | 25.7 | 0.00 | 0.18 | 0.00 | 89 | 1007.3 |
| 20260504225404 | 6 | 228 | 19.3 | 25.7 | 0.00 | 0.18 | 0.00 | 88 | 1007.3 |
| 20260504224404 | 6 | 226 | 19.3 | 24.1 | 0.00 | 0.18 | 0.00 | 88 | 1007.3 |
| 20260504223904 | 6 | 225 | 20.9 | 24.1 | 0.00 | 0.18 | 0.00 | 88 | 1007.3 |
| 20260504223403 | 6 | 222 | 20.9 | 25.7 | 0.00 | 0.18 | 0.00 | 88 | 1007.3 |
| 20260504222903 | 6 | 224 | 19.3 | 25.7 | 0.00 | 0.18 | 0.00 | 88 | 1007.3 |
| 20260504222404 | 6 | 224 | 22.5 | 27.4 | 0.00 | 0.18 | 0.00 | 88 | 1007.3 |
| 20260504221904 | 6 | 223 | 20.9 | 29.0 | 0.00 | 0.18 | 0.00 | 87 | 1007.4 |
| 20260504221404 | 6 | 220 | 19.3 | 27.4 | 0.00 | 0.18 | 0.00 | 87 | 1007.3 |
| 20260504220904 | 7 | 223 | 20.9 | 25.7 | 0.00 | 0.18 | 0.00 | 87 | 1007.3 |
| 20260504215903 | 7 | 226 | 20.9 | 32.2 | 0.00 | 0.18 | 0.18 | 86 | 1007.3 |
| 20260504215404 | 7 | 227 | 22.5 | 27.4 | 0.00 | 0.18 | 0.18 | 86 | 1007.4 |
| 20260504214904 | 7 | 226 | 22.5 | 27.4 | 0.00 | 0.18 | 0.18 | 86 | 1007.3 |
| 20260504214404 | 7 | 225 | 25.7 | 32.2 | 0.00 | 0.18 | 0.18 | 86 | 1007.4 |
| 20260504213904 | 7 | 225 | 20.9 | 32.2 | 0.00 | 0.18 | 0.18 | 86 | 1007.4 |
| 20260504213404 | 7 | 231 | 20.9 | 32.2 | 0.00 | 0.18 | 0.18 | 86 | 1007.5 |
| 20260504212903 | 7 | 230 | 20.9 | 29.0 | 0.00 | 0.18 | 0.18 | 86 | 1007.5 |
| 20260504212404 | 7 | 229 | 22.5 | 33.8 | 0.00 | 0.18 | 0.18 | 86 | 1007.5 |
| 20260504211903 | 7 | 229 | 22.5 | 32.2 | 0.00 | 0.18 | 0.18 | 85 | 1007.5 |
| 20260504211403 | 7 | 229 | 22.5 | 32.2 | 0.00 | 0.18 | 0.18 | 85 | 1007.5 |
| 20260504210903 | 7 | 225 | 24.1 | 33.8 | 0.00 | 0.18 | 0.18 | 84 | 1007.6 |
| 20260504210404 | 7 | 226 | 22.5 | 29.0 | 0.00 | 0.18 | 0.18 | 84 | 1007.6 |
| 20260504205902 | 7 | 227 | 22.5 | 33.8 | 0.00 | 0.18 | 0.18 | 84 | 1007.6 |